Date String (YYYY-MM-DD hh:mm:ss) UTC,Instrument flags,Ambient pressure (hPa),Sample flow (lpm),Bypass flow (lpm),Sample temperature (°C),Ambient temperature (°C),ASC tube jacket temperature (°C),LED temperature (°C),Box temperature (°C),Sample RH (%),Span deviation,Mass concentration (μg/m³),Mass concentration (μg/m³),Mass concentration (μg/m³)
DateTimeUTC,F1_M11,P_M11,Q1_M11,Q2_M11,T1_M11,T2_M11,T3_M11,T4_M11,T5_M11,U1_M11,ZSPAN_M11,X2_M11,X0_M11,X1_M11
2021-11-26 18:00:00,,0828.2,5.00,0.00,29.5,28.8,00.0,38.3,31.3,08.4,0000.0,0000.72,0003.46,0000.38
2021-11-26 18:01:00,,0828.2,5.00,0.00,29.5,28.8,00.0,38.3,31.3,08.4,0000.0,0000.69,0004.77,0000.37
2021-11-26 18:02:00,,0828.1,5.00,0.00,29.5,28.8,00.0,38.3,31.3,08.3,0000.0,0000.68,0004.82,0000.37
2021-11-26 18:03:00,,0828.1,5.00,0.00,29.5,28.8,00.0,38.4,31.3,08.3,0000.0,0000.73,0004.82,0000.37
2021-11-26 18:04:00,,0828.1,5.01,0.00,29.6,28.9,00.0,38.4,31.4,08.3,0000.0,0000.79,0004.37,0000.38
2021-11-26 18:05:00,,0828.1,5.01,0.00,29.6,28.9,00.0,38.4,31.4,08.2,0000.0,0000.79,0004.81,0000.38
2021-11-26 18:06:00,,0828.1,5.00,0.00,29.6,28.9,00.0,38.4,31.4,08.2,0000.0,0000.81,0004.81,0000.38
2021-11-26 18:07:00,,0828.1,5.00,0.00,29.6,28.9,00.0,38.5,31.4,08.3,0000.0,0000.81,0004.86,0000.38
2021-11-26 18:08:00,,0828.0,5.00,0.00,29.6,28.9,00.0,38.5,31.4,08.1,0000.0,0000.81,0004.86,0000.38
2021-11-26 18:09:00,,0828.0,4.99,0.00,29.7,29.0,00.0,38.5,31.5,08.1,0000.0,0000.82,0004.84,0000.37
2021-11-26 18:10:00,,0827.9,5.01,0.00,29.7,29.0,00.0,38.5,31.5,08.2,0000.0,0000.79,0004.80,0000.37
2021-11-26 18:11:00,,0828.0,4.99,0.00,29.7,29.0,00.0,38.5,31.5,08.2,0000.0,0000.79,0005.89,0000.37
2021-11-26 18:12:00,,0827.9,5.02,0.00,29.7,29.0,00.0,38.6,31.5,08.2,0000.0,0000.82,0004.88,0000.38
2021-11-26 18:13:00,,0827.9,5.00,0.00,29.7,29.0,00.0,38.6,31.5,08.1,0000.0,0000.84,0005.43,0000.38
2021-11-26 18:14:00,,0827.9,5.00,0.00,29.8,29.0,00.0,38.6,31.5,08.1,0000.0,0000.81,0006.00,0000.38
2021-11-26 18:15:00,,0827.9,4.99,0.00,29.8,29.0,00.0,38.6,31.6,08.2,0000.0,0000.73,0005.78,0000.37
2021-11-26 18:16:00,,0827.9,4.99,0.00,29.8,29.1,00.0,38.6,31.6,08.1,0000.0,0000.71,0004.56,0000.37
2021-11-26 18:17:00,,0827.9,5.00,0.00,29.8,29.1,00.0,38.7,31.6,08.1,0000.0,0000.69,0004.54,0000.37
2021-11-26 18:18:00,,0827.8,5.00,0.00,29.8,29.1,00.0,38.7,31.6,08.1,0000.0,0000.74,0004.86,0000.37
2021-11-26 18:19:00,,0827.7,5.00,0.00,29.9,29.1,00.0,38.7,31.7,08.0,0000.0,0000.78,0005.43,0000.37
2021-11-26 18:20:00,,0827.7,5.00,0.00,29.9,29.1,00.0,38.7,31.7,08.1,0000.0,0000.81,0005.80,0000.38
2021-11-26 18:21:00,,0827.7,5.01,0.00,29.9,29.1,00.0,38.8,31.7,08.1,0000.0,0000.80,0006.28,0000.38
2021-11-26 18:22:00,,0827.7,4.99,0.00,29.9,29.2,00.0,38.8,31.7,08.2,0000.0,0000.80,0005.94,0000.38
2021-11-26 18:23:00,,0827.7,5.02,0.00,29.9,29.2,00.0,38.8,31.7,08.1,0000.0,0000.79,0005.29,0000.38
2021-11-26 18:24:00,,0827.8,4.99,0.00,30.0,29.2,00.0,38.8,31.7,08.1,0000.0,0000.78,0004.74,0000.38
2021-11-26 18:25:00,,0827.7,5.00,0.00,30.0,29.3,00.0,38.8,31.8,08.0,0000.0,0000.79,0003.96,0000.39
2021-11-26 18:26:00,,0827.7,4.99,0.00,30.0,29.3,00.0,38.9,31.8,08.0,0000.0,0000.82,0003.98,0000.40
2021-11-26 18:27:00,,0827.8,5.01,0.00,30.0,29.3,00.0,38.9,31.9,08.2,0000.0,0000.85,0004.39,0000.41
2021-11-26 18:28:00,,0827.7,4.99,0.00,30.1,29.3,00.0,38.9,31.9,08.1,0000.0,0000.84,0005.92,0000.42
2021-11-26 18:29:00,,0827.7,5.01,0.00,30.1,29.4,00.0,38.9,31.9,08.1,0000.0,0000.84,0005.74,0000.44
2021-11-26 18:30:00,,0827.7,4.99,0.00,30.1,29.4,00.0,38.9,31.9,08.2,0000.0,0000.79,0005.02,0000.45
2021-11-26 18:31:00,,0827.7,5.00,0.00,30.1,29.4,00.0,39.0,31.9,08.6,0000.0,0000.73,0005.18,0000.45
2021-11-26 18:32:00,,0827.6,5.00,0.00,30.1,29.4,00.0,39.0,31.9,08.6,0000.0,0000.77,0005.95,0000.46
2021-11-26 18:33:00,,0827.6,5.01,0.00,30.1,29.5,00.0,39.0,31.9,08.6,0000.0,0000.84,0005.70,0000.47
2021-11-26 18:34:00,,0827.6,5.01,0.00,30.2,29.5,00.0,39.0,32.0,08.5,0000.0,0000.85,0005.76,0000.48
2021-11-26 18:35:00,,0827.6,4.99,0.00,30.2,29.5,00.0,39.0,32.0,08.4,0000.0,0000.91,0005.96,0000.49
2021-11-26 18:36:00,,0827.5,5.01,0.00,30.2,29.5,00.0,39.1,32.0,08.4,0000.0,0000.94,0006.07,0000.50
2021-11-26 18:37:00,,0827.5,5.00,0.00,30.2,29.5,00.0,39.1,32.0,08.4,0000.0,0000.95,0006.17,0000.50
2021-11-26 18:38:00,,0827.5,5.00,0.00,30.2,29.5,00.0,39.1,32.0,08.5,0000.0,0000.93,0005.92,0000.51
2021-11-26 18:39:00,,0827.5,5.00,0.00,30.2,29.6,00.0,39.1,32.0,08.4,0000.0,0000.95,0004.22,0000.52
2021-11-26 18:40:00,,0827.4,5.01,0.00,30.2,29.6,00.0,39.1,32.0,08.5,0000.0,0000.92,0003.96,0000.52
2021-11-26 18:41:00,,0827.4,5.01,0.00,30.3,29.6,00.0,39.2,32.0,08.6,0000.0,0000.97,0004.55,0000.52
2021-11-26 18:42:00,,0827.4,4.99,0.00,30.3,29.6,00.0,39.2,32.1,08.5,0000.0,0001.05,0004.40,0000.53
2021-11-26 18:43:00,,0827.4,5.00,0.00,30.3,29.6,00.0,39.2,32.1,08.4,0000.0,0001.05,0003.86,0000.52
2021-11-26 18:44:00,,0827.4,5.01,0.00,30.3,29.6,00.0,39.2,32.1,08.4,0000.0,0001.01,0004.11,0000.53
2021-11-26 18:45:00,,0827.3,5.01,0.00,30.3,29.6,00.0,39.2,32.1,08.4,0000.0,0001.05,0004.20,0000.53
2021-11-26 18:46:00,,0827.5,5.00,0.00,30.3,29.6,00.0,39.2,32.1,08.3,0000.0,0001.00,0004.06,0000.53
2021-11-26 18:47:00,,0827.2,5.00,0.00,30.3,29.6,00.0,39.3,32.1,08.3,0000.0,0000.97,0004.02,0000.53
2021-11-26 18:48:00,,0827.2,4.99,0.00,30.4,29.6,00.0,39.3,32.1,08.3,0000.0,0000.96,0003.95,0000.54
2021-11-26 18:49:00,,0827.2,5.02,0.00,30.4,29.6,00.0,39.3,32.2,08.2,0000.0,0001.01,0004.12,0000.54
2021-11-26 18:50:00,,0827.2,5.00,0.00,30.4,29.7,00.0,39.3,32.2,08.2,0000.0,0001.02,0004.20,0000.54
2021-11-26 18:51:00,,0827.2,5.00,0.00,30.4,29.7,00.0,39.3,32.2,08.1,0000.0,0001.06,0004.55,0000.53
2021-11-26 18:52:00,,0827.1,5.00,0.00,30.4,29.7,00.0,39.3,32.2,08.2,0000.0,0001.05,0004.37,0000.53
2021-11-26 18:53:00,,0827.1,5.00,0.00,30.4,29.7,00.0,39.4,32.2,08.0,0000.0,0001.01,0004.09,0000.54
2021-11-26 18:54:00,,0827.4,5.00,0.00,30.5,29.7,00.0,39.4,32.2,07.9,0000.0,0000.99,0003.35,0000.54
2021-11-26 18:55:00,,0827.4,5.00,0.00,30.5,29.8,00.0,39.4,32.2,07.9,0000.0,0001.01,0002.83,0000.55
2021-11-26 18:56:00,,0827.0,5.00,0.00,30.5,29.8,00.0,39.4,32.2,07.7,0000.0,0001.02,0002.96,0000.56
2021-11-26 18:57:00,,0827.0,4.99,0.00,30.5,29.8,00.0,39.4,32.3,07.5,0000.0,0001.02,0004.09,0000.56
2021-11-26 18:58:00,,0827.2,4.99,0.00,30.5,29.8,00.0,39.4,32.3,07.8,0000.0,0001.04,0004.06,0000.56
2021-11-26 18:59:00,,0827.0,5.00,0.00,30.5,29.8,00.0,39.5,32.3,07.7,0000.0,0001.06,0004.14,0000.57
